Regional Weather Roundup
Issued by NWS Portland, ME

Current Version | Previous Version | Text Only | Print | Product List | Glossary Off
Versions: 1 2 3 4 5 6 7 8 9 10 11 12 13 14 15 16 17 18 19 20 21 22 23 24 25 26 27 28 29 30 31 32 33 34 35 36 37 38 39 40 41 42 43 44 45 46 47 48 49 50
000 ASUS41 KGYX 022210 RWRGYX WEATHER ROUNDUP FOR MAINE AND NEW HAMPSHIRE NATIONAL WEATHER SERVICE GRAY ME 600 PM EDT SUN AUG 02 2015 MEZ002-005-006-010-012-015-018-020-021-024-026-027-029-022300- MAINE CITY SKY/WX TMP DP RH WIND PRES REMARKS PORTLAND MOSUNNY 76 60 57 S10 29.84S SANFORD MOSUNNY 82 54 36 SW9G16 29.85F BAR HARBOR SUNNY 72 59 64 S13 29.85S WISCASSET SUNNY 77 58 51 VRB5 29.85F ROCKLAND SUNNY 73 57 56 S7 29.84F FRYEBURG SUNNY 80 61 52 VRB5 29.84F LEWISTONAUBURN SUNNY 81 54 39 SW9 29.84S AUGUSTA PTSUNNY 76 57 51 S9 29.84F WATERVILLE MOSUNNY 79 59 50 S7 29.80F BANGOR MOSUNNY 79 59 50 S13 29.82F GREENVILLE N/A 74 53 48 VRB3 29.82S MILLINOCKET MOSUNNY 77 58 51 CALM 29.81S HOULTON MOSUNNY 78 53 41 SW12 29.78S PRESQUE ISLE MOSUNNY 77 52 41 SW10 29.77S FRENCHVILLE MOSUNNY 73 55 53 SW10G18 29.77S CARIBOU MOSUNNY 76 54 46 SW9 29.77R $$ NHZ002-005-008-009-011-012-014-022300- NEW HAMPSHIRE CITY SKY/WX TMP DP RH WIND PRES REMARKS PORTSMOUTH MOSUNNY 84 55 36 S10 29.83F ROCHESTER MOSUNNY 84 56 38 VRB3 29.84S NASHUA SUNNY 84 56 38 VRB7 29.85F MANCHESTER MOSUNNY 84 54 35 SW10 29.83F CONCORD SUNNY 84 51 31 SW10 29.84F LACONIA MOSUNNY 81 57 44 SW8 29.83F PLYMOUTH PTSUNNY 82 60 48 CALM 29.83F BERLIN CLOUDY 79 53 40 VRB5 29.84F WHITEFIELD CLOUDY 78 54 43 SW5 29.84F JAFFREY SUNNY 79 52 38 SW9 29.90F KEENE MOSUNNY 82 55 39 S12 29.85F LEBANON MOSUNNY 82 56 40 SW7 29.82F MT WASHINGTON NOT AVBL $$ VTZ005-007-008-022300- VERMONT CITY SKY/WX TMP DP RH WIND PRES REMARKS ST JOHNSBURY N/A 79 55 43 MISG 29.80F MONTPELIER SUNNY 76 56 49 S10 29.87F BURLINGTON MOSUNNY 81 59 47 S13 29.77F $$ MAZ007-012-024-CTZ003-RIZ002-NYZ038-NYZ072-022300- SOUTHERN NEW ENGLAND AND NY CITY SKY/WX TMP DP RH WIND PRES REMARKS BOSTON MOSUNNY 85 53 33 SW15 29.86S WORCESTER SUNNY 80 53 39 SW10 29.91F NANTUCKET SUNNY 76 65 68 S8 29.92F PROVIDENCE MOSUNNY 83 56 39 SW15G22 29.90S HARTFORD MOSUNNY 85 54 34 SW8 29.86F ALBANY MOSUNNY 86 56 35 S9 29.81F NEW YORK CITY MOSUNNY 85 58 39 S14G22 29.87F $$ ANZ081-ANZ082-ANZ150-NHZ014-MEZ023>029-022300- COASTAL MARINE OBSERVATIONS STATION/POSITION TIME TEMP WIND PRES WAVE AIR SEA DIR/SP/G HT/PER (UTC) (F) (DEG/KT/KT) (MB) (FT/S) MOUNT DESERT ROC 2200 65 190/ 12/ 12 1011.4F MATINICUS ROCK 2100 64 220/ 16/ 16 1011.2F ISLE OF SHOALS 2100 77 190/ 16/ 17 1010.6S JEFFREYS LEDGE 2103 67 N/A 2/ 8 CASHES LEDGE BUO 2150 69 1011.4S 3/ 8 GEORGES BANK BUO 2150 70 69 230/ 4/ 4 1013.6R 5/ 8 $$ .............KEY.............. WCI - WIND CHILL TC - TEMPERATURE IN CELSIUS VSB - VISIBILITY IN MILES HX - HEAT INDEX FAIR- INDICATES FEW OR NO CLOUDS BELOW 12,000 FT, WITH NO SIGNIFICANT WEATHER AND/OR OBSTRUCTIONS TO VISIBILITY.

USA.gov is the U.S. government's official web portal to all federal, state and local government web resources and services.